TimeCST,TemperatureF,Dew PointF,Humidity,Sea Level PressureIn,VisibilityMPH,Wind Direction,Wind SpeedMPH,Gust SpeedMPH,PrecipitationIn,Events,Conditions,WindDirDegrees,DateUTC
12:53 AM,63.0,54.0,72,30.01,10.0,South,13.8,-,N/A,,Clear,170,2013-03-04 06:53:00
1:53 AM,62.1,54.0,75,29.99,10.0,South,12.7,-,N/A,,Clear,180,2013-03-04 07:53:00
2:53 AM,63.0,54.0,72,29.96,10.0,South,13.8,21.9,N/A,,Clear,180,2013-03-04 08:53:00
3:53 AM,63.0,55.0,75,29.95,10.0,South,11.5,-,N/A,,Clear,180,2013-03-04 09:53:00
4:53 AM,63.0,55.0,75,29.94,10.0,South,12.7,-,N/A,,Clear,180,2013-03-04 10:53:00
5:53 AM,63.0,55.9,78,29.94,10.0,South,13.8,21.9,N/A,,Clear,190,2013-03-04 11:53:00
6:53 AM,63.0,57.0,81,29.94,10.0,South,10.4,-,N/A,,Clear,190,2013-03-04 12:53:00
7:53 AM,64.0,57.9,80,29.94,10.0,South,12.7,-,N/A,,Clear,190,2013-03-04 13:53:00
8:53 AM,68.0,59.0,73,29.94,10.0,South,15.0,24.2,N/A,,Clear,190,2013-03-04 14:53:00
9:53 AM,69.1,59.0,70,29.95,10.0,SSW,17.3,-,N/A,,Clear,200,2013-03-04 15:53:00
10:53 AM,70.0,59.0,68,29.94,10.0,SSW,17.3,-,N/A,,Clear,200,2013-03-04 16:53:00
11:53 AM,71.1,60.1,68,29.92,10.0,SSW,18.4,-,N/A,,Clear,200,2013-03-04 17:53:00
12:53 PM,72.0,60.1,66,29.89,10.0,South,19.6,25.3,N/A,,Clear,190,2013-03-04 18:53:00
1:53 PM,72.0,61.0,68,29.85,10.0,South,19.6,25.3,N/A,,Clear,190,2013-03-04 19:53:00
2:53 PM,72.0,61.0,68,29.83,10.0,South,17.3,26.5,N/A,,Clear,190,2013-03-04 20:53:00
3:53 PM,72.0,61.0,68,29.82,10.0,South,19.6,26.5,N/A,,Clear,190,2013-03-04 21:53:00
4:53 PM,72.0,61.0,68,29.81,10.0,South,15.0,20.7,N/A,,Clear,180,2013-03-04 22:53:00
5:53 PM,69.1,61.0,75,29.81,9.0,South,13.8,-,N/A,,Clear,180,2013-03-04 23:53:00
6:53 PM,66.9,61.0,81,29.81,9.0,South,15.0,-,N/A,,Clear,180,2013-03-05 00:53:00
7:53 PM,66.9,61.0,81,29.82,9.0,South,13.8,-,N/A,,Clear,170,2013-03-05 01:53:00
8:53 PM,66.9,62.1,84,29.83,9.0,South,17.3,-,N/A,,Clear,180,2013-03-05 02:53:00
9:53 PM,66.9,62.1,84,29.83,9.0,South,18.4,27.6,N/A,,Clear,180,2013-03-05 03:53:00
10:53 PM,66.9,62.1,84,29.83,9.0,South,16.1,26.5,N/A,,Clear,180,2013-03-05 04:53:00
11:53 PM,66.9,62.1,84,29.83,9.0,South,16.1,21.9,N/A,,Clear,190,2013-03-05 05:53:00